ONEWEB-0060, 45455

Orbit data source: Space-Track

ONEWEB-0060, 45455 is a payload satellite owned by One Web (UK) in LEO that was launched on Sat, 21 Mar 2020 UTC via a SOYUZ-2-1B launch vehicle from the Tyuratam Missile And Space Complex (TTMTR). Payload-class satellites include a variety of spacecraft equipped with specific instruments for various scientific and technological missions. These include communications satellites like Starlink; space stations such as the ISS; scientific satellites like the Hubble; Earth observation satellites from companies like Planet Labs, Umbra, and HawkEye 360; GPS; miniature CubeSats for education and research; and military/defense satellites.

Loading next visibility...
Identifier
45455, 2020-020AH
Orbit
LEO
Country
Flag of UKUK
Related business
Manufacturer
One Web
Mission
Operational Commercial Communications
Bus & Motor
ARROW, Unknown motor
Mass
148 kg wet, ~140 kg dry
Launch date (UTC)
2020-03-21 (6 years ago)
Launch vehicle
SOYUZ-2-1B
Launch site
Tyuratam Missile And Space Complex (TTMTR)
Object type
Payload
Rocket body
Debris
Shape & HBR
Trap Box + 2 Pan, 6.7 m
Radar Cross Section
3.464 m², Large (>1 m²)

Expand to show TLE details & history
Last TLE update: 12 hours ago

TLE from 12 hours ago
0 ONEWEB-0060
1 45455U 20020AH  26126.74382520 -.00000316  00000-0 -92828-3 0  9999
2 45455  87.8919  29.3080 0002792  72.7960 287.3473 13.11416007297118
Epoch: 2026-05-06T17:51Z
TLE epoch observation values (Epoch: 2026-05-06T17:51:06.497Z)
Latitude
-0.00005°
Longitude
-103.069°
Altitude
1,219.944 km
Speed
7.245 km/s
True Right ascension
01h 57m 13s
True Declination
0° 00' 00"
Sunlit
Object was in daylight at epoch
Visualization orbit readout
Latitude
Unknown
Longitude
Unknown
Altitude
Unknown
Speed
Unknown
Apparent Right ascension
Unknown
Apparent Declination
Unknown
Sunlit
N/A
Visualization observer readout
Local Sidereal Time
13:34:22
Azimuth
Unknown
Elevation
Unknown
Doppler factor
Unknown
Orbital elements
Apogee altitude
1,216.924 km
Perigee altitude
1,212.685 km
Semi-major axis
7,592.942 km
Eccentricity
0.00028
Inclination
87.8919°
RAAN
29.308°
Arg. of periapsis
72.796°
True anomaly
287.31676°
Mean anomaly
287.3473°
Eccentric anomaly
287.33203°
Mean motion
3.28041 °/min
Orbital period
109.74 mins
BSTAR
-0.00092828
Loading maneuver chart data...
Computing Atmospheric mass density...
Loading historical data...
Loading historical data...
Loading historical data...
Loading historical data...
Loading historical data...
Loading historical data...
Loading historical data...

Documentation

Showing up to 5 results
|